Location: Unspecified
(38.9820°N, 94.4650°W)
Time: 02:02:54
(UTC-05:00)

CZ-3 Stage 3 - Visible Passes

Search period start: 24 October 2014 00:00
Search period end: 02 November 2014 23:00
Orbit: 415 x 34824 km, 30.9° (Epoch: 21 October)

Date Brightness Start Highest point End Pass type
(mag) Time Alt. Az. Time Alt. Az. Time Alt. Az.
24 Oct 6.0 00:00:00 16° SSW 07:45:40 67° S 07:54:47 10° ESE visible
24 Oct 7.9 20:46:53 10° SE 03:43:46 59° SSE 04:18:33 10° E visible
25 Oct 8.6 21:14:43 10° ESE 23:31:06 23° ESE 00:26:27 10° E visible
26 Oct 6.0 23:21:59 10° SSW 07:42:08 67° S 07:51:05 10° ESE visible
27 Oct 7.8 20:33:47 10° SE 03:41:02 61° SSE 04:14:57 10° E visible
28 Oct 8.5 20:57:36 10° ESE 23:26:57 25° ESE 00:24:22 10° E visible
29 Oct 5.9 23:17:06 10° SSW 07:38:28 67° SSW 07:47:14 10° ESE visible
30 Oct 7.8 20:21:06 10° SE 03:38:07 62° SSE 04:11:13 10° E visible
31 Oct 8.5 20:40:50 10° ESE 23:22:39 27° ESE 00:21:54 10° E visible
01 Nov 5.8 23:12:10 10° SSW 06:34:38 66° SSW 06:43:15 10° ESE visible
02 Nov 9.4 19:08:50 10° SSE 23:00:00 39° SSE 23:00:00 39° SSE visible
